Location: D�derode
(51.8092°N, 10.1065°E)
Time: 06:32:23
(UTC+00:00)

USA 215 - Pass Details

Date: 01 December 2020
Orbit: 1098 x 1110 km, 123.0° (Epoch: 22 January)

Event Time Altitude Azimuth Distance (km) Brightness Sun altitude
Exits shadow 18:46:50 62° 191° (SSW) 1,234 3.4 -32.1°
Drops below altitude 10° 18:52:29 10° 230° (SW) 2,970 6.0 -33.0°
Sets 18:54:59 0° 232° (SW) 3,926 6.7 -33.4°
